Find Starlink 11582

NORAD ID: 62985 Int'l Des: 2025-031 Owner: SPXS Country: US Constellation: starlink operational
LEOCIRCULAR

Live-Position

3D-Globus wird geladen...

Über Starlink 11582

Beschreibung wird geladen...

Nächste Überflüge

Passes for default location (London). Set your location on the main map for personalized predictions.

Höhenverlauf

Loading altitude history...

Zweizeiliger Elementsatz

1 62985U 25031E 26126.05172992 .00111015 00000-0 85771-3 0 9993
2 62985 43.0023 15.7282 0002468 275.0460 85.0126 15.70822778 71763
Epoch: 6. Mai 2026 • Age: 23 hours

Aktueller Status

Höhe 356.9 km
Geschwindigkeit 7.70 km/s
Subsatellitenpunkt -10.37°S, 132.91°E
Startdatum 11. Feb. 2025
Alter 1.2 years
Typ internet

Technische Details

Klassifizierung Payload
Masse 960.00 kg
Trockenmasse 910.00 kg
Gesamtmasse 960.00 kg
Länge 0.30 m
Durchmesser 4.10 m
Spannweite 29.00 m
Form Box + pan
Hersteller SPXS
Bus-Typ Starlink V2MD
Phasenstatus In Orbit
Besitzer/Staat SPXS/US

Most Searched